Weather History for Traverse City, MI

Change the Weather History Date:

Sunday, June 16, 2013

  Actual Average Record
Temperature  
Mean Temperature 72 °F 64 °F  
Max Temperature 82 °F 76 °F 98 °F (1952)
Min Temperature 61 °F 53 °F 33 °F (1980)
Degree Days  
Heating Degree Days 0 3  
Month to date heating degree days 90 81  
Since 1 June heating degree days 90 81  
Since 1 July heating degree days 7065 7517  
Cooling Degree Days 7 3  
Month to date cooling degree days 12 28  
Year to date cooling degree days 54 48  
Since 1 June cooling degree days 12 28  
Growing Degree Days 21 (Base 50)    
Moisture  
Dew Point 59 °F    
Average Humidity 67    
Maximum Humidity 97    
Minimum Humidity 37    
Precipitation  
Precipitation 0.37 in 0.10 in 1.80 in (1943)
Month to date precipitation 1.25 1.56  
Year to date precipitation 13.63 13.11  
Sea Level Pressure  
Sea Level Pressure 29.80 in    
Wind  
Wind Speed 8 mph (West)    
Max Wind Speed 20 mph    
Max Gust Speed 29 mph    
Visibility 7 miles    
Events Rain , Thunderstorm    
T = Trace of Precipitation, MM = Missing Value Source: NWS Daily Summary

Daily Weather History Graph

Daily Weather History Graph

Search for Another Location

Airport:

Trip Planner

Search our weather history database for the weather conditions in past years. The results will help you decide how hot, cold, wet, or windy it might be!

Date:

Astronomy

Jun. 16, 2013 Rise Set
Actual Time 5:56 AM EDT 9:30 PM EDT
Civil Twilight 5:18 AM EDT 10:07 PM EDT
Nautical Twilight 4:29 AM EDT 10:56 PM EDT
Astronomical Twilight 3:25 AM EDT 12:01 AM EDT
Moon 1:49 PM EDT (6/16) 1:18 AM EDT (6/16)
Length of Visible Light 16h 48m
Length of Day
15h 34m
Waxing Crescent, 49% of the Moon is Illuminated
Jun 16
Waxing Crescent
Jun 16
First Quarter
Jun 23
Full
Jun 30
Last Quarter
Jul 8
New

Hourly Weather History & Observations

Time (EDT) Temp. Heat Index Dew Point Humidity Pressure Visibility Wind Dir Wind Speed Gust Speed Precip Events Conditions
12:08 AM 69.8 °F - 60.8 °F 73% 29.81 in 10.0 mi Variable 3.5 mph - N/A Thunderstorm Overcast
12:40 AM 66.2 °F - 60.8 °F 83% 29.82 in 1.8 mi WSW 4.6 mph - 0.10 in Rain , Thunderstorm Heavy Rain
12:53 AM 64.9 °F - 62.1 °F 90% 29.82 in 1.8 mi West 5.8 mph - 0.20 in Rain , Thunderstorm Rain
1:03 AM 64.4 °F - 62.6 °F 94% 29.83 in 2.0 mi West 3.5 mph - 0.06 in Rain Rain
1:11 AM 64.4 °F - 62.6 °F 94% 29.83 in 2.5 mi NW 5.8 mph - 0.09 in Rain Rain
1:21 AM 64.4 °F - 62.6 °F 94% 29.83 in 4.0 mi WNW 5.8 mph - 0.13 in Rain Rain
1:33 AM 64.4 °F - 62.6 °F 94% 29.83 in 2.5 mi WNW 5.8 mph - 0.18 in Rain Rain
1:53 AM 64.0 °F - 62.1 °F 93% 29.81 in 1.8 mi Calm Calm - 0.32 in Rain Rain
2:05 AM 64.4 °F - 62.6 °F 94% 29.81 in 2.5 mi Calm Calm - 0.03 in Rain Rain
2:16 AM 64.4 °F - 62.6 °F 94% 29.79 in 3.0 mi SE 3.5 mph - 0.05 in Rain Rain
2:53 AM 64.0 °F - 62.1 °F 93% 29.73 in 7.0 mi Variable 3.5 mph - 0.08 in Rain Light Rain
3:33 AM 64.4 °F - 62.6 °F 94% 29.75 in 10.0 mi Calm Calm - 0.01 in   Mostly Cloudy
3:53 AM 64.0 °F - 62.1 °F 93% 29.74 in 5.0 mi Calm Calm - 0.01 in   Overcast
4:24 AM 64.4 °F - 62.6 °F 94% 29.76 in 10.0 mi NW 3.5 mph - N/A   Overcast
4:53 AM 64.0 °F - 62.1 °F 93% 29.76 in 10.0 mi WNW 13.8 mph 19.6 mph N/A   Overcast
5:35 AM 64.4 °F - 62.6 °F 94% 29.78 in 10.0 mi WNW 6.9 mph - N/A   Overcast
5:53 AM 63.0 °F - 61.0 °F 93% 29.78 in 9.0 mi WNW 9.2 mph - N/A   Overcast
6:53 AM 61.0 °F - 59.0 °F 93% 29.78 in 5.0 mi NW 4.6 mph - N/A   Overcast
7:02 AM 60.8 °F - 59.0 °F 94% 29.79 in 2.0 mi Calm Calm - N/A   Overcast
7:42 AM 62.6 °F - 60.8 °F 94% 29.79 in 1.0 mi Calm Calm - N/A   Overcast
7:53 AM 62.1 °F - 60.1 °F 93% 29.80 in 1.0 mi WSW 4.6 mph - N/A   Overcast
8:24 AM 62.6 °F - 60.8 °F 94% 29.80 in 2.0 mi Calm Calm - N/A   Overcast
8:48 AM 64.4 °F - 60.8 °F 88% 29.80 in 3.0 mi WSW 4.6 mph - N/A   Overcast
8:53 AM 64.0 °F - 61.0 °F 90% 29.80 in 3.0 mi WSW 4.6 mph - N/A   Overcast
9:13 AM 64.4 °F - 62.6 °F 94% 29.80 in 3.0 mi WSW 4.6 mph - N/A   Overcast
9:53 AM 66.0 °F - 62.1 °F 87% 29.81 in 9.0 mi West 10.4 mph - N/A   Overcast
10:27 AM 66.2 °F - 60.8 °F 83% 29.81 in 10.0 mi West 11.5 mph - N/A   Overcast
10:53 AM 68.0 °F - 61.0 °F 78% 29.80 in 10.0 mi WSW 5.8 mph - N/A   Overcast
11:30 AM 69.8 °F - 60.8 °F 73% 29.80 in 10.0 mi Variable 3.5 mph - N/A   Scattered Clouds
11:53 AM 72.0 °F - 61.0 °F 68% 29.80 in 10.0 mi West 6.9 mph - N/A   Scattered Clouds
12:53 PM 75.0 °F - 61.0 °F 62% 29.80 in 10.0 mi WSW 8.1 mph - N/A   Scattered Clouds
1:53 PM 78.1 °F - 55.9 °F 46% 29.78 in 10.0 mi West 12.7 mph 16.1 mph N/A   Scattered Clouds
2:53 PM 79.0 °F - 51.1 °F 38% 29.79 in 10.0 mi West 12.7 mph 23.0 mph N/A   Partly Cloudy
3:53 PM 80.1 °F 80.1 °F 55.0 °F 42% 29.79 in 10.0 mi WSW 11.5 mph 17.3 mph N/A   Partly Cloudy
4:53 PM 80.1 °F 80.0 °F 54.0 °F 40% 29.78 in 10.0 mi West 19.6 mph 26.5 mph N/A   Scattered Clouds
5:53 PM 82.0 °F 81.3 °F 54.0 °F 38% 29.79 in 10.0 mi West 16.1 mph 23.0 mph N/A   Scattered Clouds
6:53 PM 80.1 °F 79.9 °F 53.1 °F 39% 29.79 in 10.0 mi West 11.5 mph 18.4 mph N/A   Scattered Clouds
7:53 PM 78.1 °F - 53.1 °F 42% 29.79 in 10.0 mi WSW 8.1 mph - N/A   Scattered Clouds
8:53 PM 75.0 °F - 53.1 °F 46% 29.80 in 10.0 mi WSW 6.9 mph - N/A   Mostly Cloudy
9:53 PM 70.0 °F - 50.0 °F 49% 29.82 in 10.0 mi West 4.6 mph - N/A   Mostly Cloudy
10:53 PM 66.0 °F - 52.0 °F 60% 29.82 in 10.0 mi SW 5.8 mph - N/A   Clear
11:53 PM 66.0 °F - 51.1 °F 59% 29.84 in 10.0 mi Variable 4.6 mph - N/A   Overcast